This is the latest recevied weather packets stored in our database for station/object KC3DGM. If no packets are shown the sender has not sent any weather packets the latest 10 day(s).
| Time | Temp. | Humidity | Pressure | Rain* | Wind** | Luminosity | Snow |
|---|---|---|---|---|---|---|---|
| 1777982225 | 17.78° C | 70% | 978 hPa | 0 mm | - | 65 W/m² | - |
| 1777981923 | 17.78° C | 71% | 977.8 hPa | 0 mm | - | 69 W/m² | - |
| 1777981620 | 17.78° C | 71% | 978 hPa | 0 mm | - | 65 W/m² | - |
| 1777981316 | 17.22° C | 71% | 977.6 hPa | 0 mm | - | 50 W/m² | - |
| 1777981013 | 17.22° C | 72% | 977.6 hPa | 0 mm | - | 46 W/m² | - |
| 1777980709 | 17.22° C | 72% | 977.6 hPa | 0 mm | - | 23 W/m² | - |
| 1777980405 | 17.22° C | 73% | 977.3 hPa | 0 mm | - | 32 W/m² | - |
| 1777980103 | 17.22° C | 72% | 977.5 hPa | 0 mm | - | 27 W/m² | - |
| 1777979803 | 17.22° C | 72% | 977.3 hPa | 0 mm | - | 27 W/m² | - |
| 1777979499 | 17.22° C | 72% | 977.5 hPa | 0 mm | - | 34 W/m² | - |
| 1777979195 | 17.22° C | 73% | 977.2 hPa | 0 mm | - | 30 W/m² | - |
| 1777978893 | 17.22° C | 73% | 977.1 hPa | 0 mm | - | 26 W/m² | - |
| 1777978589 | 17.22° C | 73% | 977 hPa | 0 mm | - | 20 W/m² | - |
| 1777978285 | 16.67° C | 74% | 977 hPa | 0 mm | - | 19 W/m² | - |
| 1777977982 | 17.22° C | 72% | 977.1 hPa | 0 mm | - | 18 W/m² | - |
| 1777977680 | 17.22° C | 72% | 976.7 hPa | 0 mm | - | 16 W/m² | - |
| 1777977376 | 17.22° C | 73% | 976.8 hPa | 0 mm | - | 12 W/m² | - |
| 1777977074 | 16.67° C | 73% | 976.7 hPa | 0 mm | - | 9 W/m² | - |
| 1777976771 | 17.22° C | 72% | 976.5 hPa | 0 mm | - | 6 W/m² | - |
| 1777976468 | 17.22° C | 72% | 976.9 hPa | 0 mm | - | 3 W/m² | - |
| 1777976167 | 17.22° C | 72% | 976.8 hPa | 0 mm | - | 0 W/m² | - |
| 1777975863 | 17.22° C | 72% | 976.7 hPa | 0 mm | - | 0 W/m² | - |
| 1777975560 | 17.22° C | 71% | 976.9 hPa | 0 mm | - | 0 W/m² | - |
| 1777975256 | 17.78° C | 70% | 976.7 hPa | 0 mm | - | 0 W/m² | - |
| 1777974952 | 17.78° C | 69% | 976.7 hPa | 0 mm | - | 0 W/m² | - |
* Rain latest hour (hover to see other rain measurements)
** Current wind speed in m/s (hover to see current wind gust speed)